• In Lithuania
  • List of Countries
  • For 7 days
  • Water Temperature
  • Satellite Maps
  • Weather Map
  • Weather Widgets
  • user-avatar
    Login

    Hourly Weather Erfurt

    Today, 18 December, Monday

    Time Temperature Precipitation Wind Pressure Humidity
    00:00 -1°C° 0 mm 2 mps 749 mmHg 91%
    01:00 -1°C° 0 mm 2 mps 749 mmHg 91%
    02:00 -1°C° 0 mm 2 mps 749 mmHg 91%
    03:00 -1°C° 0 mm 3 mps 748 mmHg 90%
    04:00 -1°C° 0 mm 3 mps 748 mmHg 89%
    05:00 -1°C° 0 mm 3 mps 748 mmHg 89%
    06:00 -1°C° 0 mm 3 mps 748 mmHg 89%
    07:00 -1°C° 0 mm 2 mps 748 mmHg 90%
    08:00 -1°C° 0 mm 2 mps 748 mmHg 88%
    09:00 -1°C° 0 mm 2 mps 749 mmHg 86%
    10:00 -1°C° 0 mm 2 mps 749 mmHg 84%
    11:00 +1°C° 0 mm 2 mps 749 mmHg 81%
    12:00 +2°C° 0 mm 2 mps 750 mmHg 78%
    13:00 +2°C° 0 mm 2 mps 750 mmHg 75%
    14:00 +3°C° 0 mm 1 mps 750 mmHg 79%
    15:00 +2°C° 0 mm 1 mps 750 mmHg 83%
    16:00 +1°C° 0 mm 1 mps 751 mmHg 86%
    17:00 +1°C° 0 mm 1 mps 751 mmHg 87%
    18:00 0°C° 0 mm 1 mps 752 mmHg 88%
    19:00 0°C° 0 mm 1 mps 752 mmHg 88%
    20:00 0°C° 0 mm 1 mps 752 mmHg 88%
    21:00 -1°C° 0 mm 1 mps 753 mmHg 88%
    22:00 -1°C° 0 mm 1 mps 753 mmHg 88%
    23:00 -1°C° 0 mm 1 mps 753 mmHg 88%

    Tomorrow, 19 December, Tuesday

    Time Temperature Precipitation Wind Pressure Humidity
    00:00 -1°C° 0 mm 1 mps 754 mmHg 88%
    01:00 -1°C° 0 mm 1 mps 754 mmHg 88%
    02:00 -1°C° 0 mm 1 mps 754 mmHg 88%
    03:00 0°C° 0 mm 1 mps 754 mmHg 89%
    04:00 0°C° 0 mm 1 mps 755 mmHg 89%
    05:00 0°C° 0 mm 1 mps 755 mmHg 90%
    06:00 0°C° 0 mm 1 mps 755 mmHg 90%
    07:00 0°C° 0 mm 1 mps 755 mmHg 91%
    08:00 -2°C° 0 mm 2 mps 756 mmHg 90%
    09:00 -1°C° 0 mm 2 mps 756 mmHg 88%
    10:00 -1°C° 0 mm 2 mps 757 mmHg 87%
    11:00 +1°C° 0 mm 2 mps 756 mmHg 86%
    12:00 +2°C° 0 mm 2 mps 756 mmHg 85%
    13:00 +3°C° 0 mm 2 mps 756 mmHg 84%
    14:00 +2°C° 0.1 mm 2 mps 756 mmHg 87%
    15:00 +2°C° 0.1 mm 2 mps 756 mmHg 90%
    16:00 +2°C° 0.1 mm 2 mps 756 mmHg 92%
    17:00 +2°C° 0.3 mm 2 mps 756 mmHg 93%
    18:00 +2°C° 0.3 mm 2 mps 756 mmHg 94%
    19:00 +1°C° 0.3 mm 3 mps 756 mmHg 94%
    20:00 +1°C° 0.3 mm 3 mps 756 mmHg 94%
    21:00 +1°C° 0.3 mm 3 mps 755 mmHg 95%
    22:00 +1°C° 0.3 mm 3 mps 755 mmHg 95%
    23:00 +1°C° 0.4 mm 3 mps 755 mmHg 95%

    Day after tomorrow, 20 December, Wednesday

    Time Temperature Precipitation Wind Pressure Humidity
    00:00 +2°C° 0.4 mm 2 mps 755 mmHg 96%
    01:00 +2°C° 0.4 mm 2 mps 755 mmHg 96%
    02:00 +2°C° 0.3 mm 2 mps 754 mmHg 96%
    03:00 +2°C° 0.3 mm 2 mps 754 mmHg 96%
    04:00 +2°C° 0.3 mm 2 mps 754 mmHg 96%
    05:00 +2°C° 0.5 mm 2 mps 754 mmHg 96%
    06:00 +2°C° 0.5 mm 2 mps 754 mmHg 96%
    07:00 +3°C° 0.5 mm 1 mps 754 mmHg 97%
    08:00 +4°C° 0.8 mm 1 mps 754 mmHg 97%
    09:00 +4°C° 0.8 mm 1 mps 754 mmHg 97%
    10:00 +4°C° 0.8 mm 1 mps 754 mmHg 97%
    11:00 +4°C° 0.7 mm 1 mps 754 mmHg 97%
    12:00 +4°C° 0.7 mm 1 mps 754 mmHg 97%
    13:00 +5°C° 0.7 mm 1 mps 754 mmHg 97%
    14:00 +5°C° 0.7 mm 1 mps 754 mmHg 97%
    15:00 +5°C° 0.7 mm 1 mps 754 mmHg 97%
    16:00 +5°C° 0.7 mm 1 mps 754 mmHg 97%
    17:00 +5°C° 0.6 mm 1 mps 754 mmHg 98%
    18:00 +5°C° 0.6 mm 1 mps 754 mmHg 98%
    19:00 +5°C° 0.6 mm 1 mps 754 mmHg 98%
    20:00 +5°C° 0.2 mm 1 mps 754 mmHg 98%
    21:00 +5°C° 0.2 mm 1 mps 755 mmHg 98%
    22:00 +5°C° 0.2 mm 1 mps 755 mmHg 97%
    23:00 +6°C° 0.1 mm 1 mps 755 mmHg 98%

    21 December, Thursday

    Time Temperature Precipitation Wind Pressure Humidity
    00:00 +5°C° 0.1 mm 2 mps 755 mmHg 98%
    01:00 +5°C° 0.1 mm 2 mps 755 mmHg 98%
    02:00 +5°C° 0.1 mm 2 mps 754 mmHg 98%
    03:00 +5°C° 0.1 mm 2 mps 754 mmHg 97%
    04:00 +5°C° 0.1 mm 2 mps 754 mmHg 97%
    05:00 +5°C° 0.2 mm 2 mps 754 mmHg 97%
    06:00 +5°C° 0.2 mm 3 mps 753 mmHg 97%
    07:00 +5°C° 0.2 mm 3 mps 753 mmHg 97%
    08:00 +5°C° 0.7 mm 3 mps 753 mmHg 96%
    09:00 +5°C° 0.7 mm 3 mps 753 mmHg 96%
    10:00 +5°C° 0.7 mm 3 mps 753 mmHg 96%
    11:00 +7°C° 0.5 mm 3 mps 753 mmHg 96%
    12:00 +7°C° 0.5 mm 3 mps 753 mmHg 95%
    13:00 +7°C° 0.5 mm 3 mps 753 mmHg 95%
    14:00 +7°C° 0.2 mm 2 mps 753 mmHg 95%
    15:00 +6°C° 0.2 mm 2 mps 753 mmHg 96%
    16:00 +6°C° 0.2 mm 2 mps 753 mmHg 96%
    17:00 +6°C° 0 mm 2 mps 753 mmHg 96%
    18:00 +5°C° 0 mm 2 mps 753 mmHg 95%
    19:00 +6°C° 0 mm 1 mps 754 mmHg 95%
    20:00 +4°C° 0 mm 2 mps 754 mmHg 95%
    21:00 +4°C° 0 mm 2 mps 754 mmHg 94%
    22:00 +3°C° 0 mm 2 mps 755 mmHg 94%
    23:00 +3°C° 0 mm 2 mps 755 mmHg 94%

    22 December, Friday

    Time Temperature Precipitation Wind Pressure Humidity
    00:00 +3°C° 0 mm 2 mps 755 mmHg 93%
    01:00 +2°C° 0 mm 2 mps 755 mmHg 93%
    02:00 +2°C° 0 mm 2 mps 755 mmHg 92%
    03:00 +1°C° 0 mm 3 mps 755 mmHg 91%
    04:00 +1°C° 0 mm 3 mps 755 mmHg 90%
    05:00 +1°C° 0 mm 3 mps 755 mmHg 91%
    06:00 +1°C° 0 mm 3 mps 755 mmHg 91%
    07:00 +1°C° 0 mm 3 mps 755 mmHg 91%
    08:00 +1°C° 0 mm 3 mps 756 mmHg 91%
    09:00 +2°C° 0 mm 3 mps 756 mmHg 91%
    10:00 +2°C° 0 mm 3 mps 757 mmHg 91%
    11:00 +3°C° 0 mm 3 mps 756 mmHg 88%
    12:00 +3°C° 0 mm 4 mps 756 mmHg 86%
    13:00 +3°C° 0 mm 4 mps 756 mmHg 83%
    14:00 +3°C° 0 mm 4 mps 756 mmHg 85%
    15:00 +2°C° 0 mm 3 mps 756 mmHg 87%
    16:00 +2°C° 0 mm 3 mps 756 mmHg 89%
    17:00 +2°C° 0 mm 3 mps 756 mmHg 90%
    18:00 +2°C° 0 mm 3 mps 756 mmHg 91%
    19:00 +1°C° 0 mm 3 mps 756 mmHg 92%
    20:00 +1°C° 0 mm 3 mps 756 mmHg 91%
    21:00 0°C° 0 mm 4 mps 756 mmHg 91%
    22:00 0°C° 0 mm 4 mps 756 mmHg 91%
    23:00 +1°C° 0.1 mm 4 mps 755 mmHg 90%

    23 December, Saturday

    Time Temperature Precipitation Wind Pressure Humidity
    00:00 +1°C° 0.1 mm 5 mps 755 mmHg 90%
    01:00 +1°C° 0.1 mm 5 mps 755 mmHg 89%
    02:00 +1°C° 0.1 mm 5 mps 754 mmHg 89%
    03:00 +1°C° 0.1 mm 5 mps 754 mmHg 89%
    04:00 +1°C° 0.1 mm 5 mps 754 mmHg 89%
    05:00 +1°C° 0.1 mm 5 mps 754 mmHg 90%
    06:00 +2°C° 0.1 mm 5 mps 754 mmHg 90%
    07:00 +3°C° 0.1 mm 4 mps 754 mmHg 91%
    08:00 +3°C° 0.1 mm 4 mps 754 mmHg 91%
    09:00 +3°C° 0.1 mm 4 mps 754 mmHg 91%
    10:00 +3°C° 0.1 mm 4 mps 755 mmHg 91%
    11:00 +3°C° 0 mm 4 mps 754 mmHg 89%
    12:00 +4°C° 0 mm 4 mps 754 mmHg 88%
    13:00 +4°C° 0 mm 4 mps 754 mmHg 86%
    14:00 +4°C° 0 mm 4 mps 754 mmHg 87%
    15:00 +3°C° 0 mm 3 mps 754 mmHg 88%
    16:00 +3°C° 0 mm 3 mps 754 mmHg 89%
    17:00 +2°C° 0 mm 3 mps 754 mmHg 90%
    18:00 +2°C° 0 mm 3 mps 754 mmHg 92%
    19:00 +3°C° 0 mm 2 mps 754 mmHg 93%
    20:00 +2°C° 0 mm 3 mps 754 mmHg 93%
    21:00 +3°C° 0 mm 3 mps 754 mmHg 93%
    22:00 +3°C° 0 mm 4 mps 753 mmHg 93%
    23:00 +4°C° 0 mm 4 mps 753 mmHg 93%
    Show more